When you browse on this site, cookies collect data to enhance your experience and personalize the content and advertising you see.
Visit our Privacy Policy to learn more. By continuing to use the site, you agree to this use of cookies and data.
  • In Spain
  • List of Countries
  • For 7 days
  • Water Temperature
  • Satellite Maps
  • Weather Map
  • Weather Widgets
  • user-avatar
    Login

    Hourly Weather Patna

    Today, 18 April, Thursday

    Time Temperature Precipitation Wind Pressure Humidity
    00:00 +28°C° 0 mm 1 mps 752 mmHg 44%
    01:00 +28°C° 0 mm 1 mps 752 mmHg 45%
    02:00 +28°C° 0 mm 2 mps 752 mmHg 47%
    03:00 +27°C° 0 mm 2 mps 752 mmHg 48%
    04:00 +27°C° 0 mm 2 mps 752 mmHg 49%
    05:00 +27°C° 0 mm 2 mps 752 mmHg 50%
    06:00 +26°C° 0 mm 3 mps 752 mmHg 52%
    07:00 +28°C° 0 mm 3 mps 752 mmHg 48%
    08:00 +30°C° 0 mm 4 mps 753 mmHg 45%
    09:00 +33°C° 0 mm 4 mps 753 mmHg 41%
    10:00 +35°C° 0 mm 4 mps 753 mmHg 36%
    11:00 +37°C° 0 mm 4 mps 753 mmHg 31%
    12:00 +37°C° 0 mm 4 mps 753 mmHg 30%
    13:00 +38°C° 0 mm 4 mps 752 mmHg 26%
    14:00 +40°C° 0 mm 4 mps 751 mmHg 22%
    15:00 +42°C° 0 mm 5 mps 750 mmHg 18%
    16:00 +41°C° 0 mm 5 mps 750 mmHg 18%
    17:00 +40°C° 0 mm 5 mps 749 mmHg 19%
    18:00 +40°C° 0 mm 5 mps 749 mmHg 19%
    19:00 +39°C° 0 mm 5 mps 749 mmHg 20%
    20:00 +37°C° 0 mm 4 mps 749 mmHg 22%
    21:00 +35°C° 0 mm 4 mps 750 mmHg 23%
    22:00 +35°C° 0 mm 4 mps 750 mmHg 24%
    23:00 +34°C° 0 mm 3 mps 750 mmHg 25%

    Tomorrow, 19 April, Friday

    Time Temperature Precipitation Wind Pressure Humidity
    00:00 +34°C° 0 mm 3 mps 750 mmHg 26%
    01:00 +33°C° 0 mm 3 mps 750 mmHg 28%
    02:00 +31°C° 0 mm 3 mps 749 mmHg 30%
    03:00 +30°C° 0 mm 3 mps 749 mmHg 32%
    04:00 +30°C° 0 mm 2 mps 749 mmHg 34%
    05:00 +29°C° 0 mm 2 mps 749 mmHg 36%
    06:00 +28°C° 0 mm 1 mps 749 mmHg 38%
    07:00 +31°C° 0 mm 2 mps 750 mmHg 33%
    08:00 +34°C° 0 mm 2 mps 750 mmHg 28%
    09:00 +36°C° 0 mm 2 mps 751 mmHg 24%
    10:00 +37°C° 0 mm 3 mps 751 mmHg 21%
    11:00 +39°C° 0 mm 3 mps 751 mmHg 18%
    12:00 +40°C° 0 mm 3 mps 751 mmHg 15%
    13:00 +41°C° 0 mm 4 mps 750 mmHg 15%
    14:00 +41°C° 0 mm 4 mps 749 mmHg 14%
    15:00 +41°C° 0 mm 5 mps 748 mmHg 13%
    16:00 +41°C° 0 mm 5 mps 748 mmHg 14%
    17:00 +40°C° 0 mm 5 mps 748 mmHg 15%
    18:00 +40°C° 0 mm 6 mps 747 mmHg 16%
    19:00 +39°C° 0 mm 5 mps 748 mmHg 18%
    20:00 +36°C° 0 mm 4 mps 748 mmHg 19%
    21:00 +35°C° 0 mm 3 mps 749 mmHg 21%
    22:00 +34°C° 0 mm 2 mps 749 mmHg 22%
    23:00 +34°C° 0 mm 2 mps 749 mmHg 23%

    Day after tomorrow, 20 April, Saturday

    Time Temperature Precipitation Wind Pressure Humidity
    00:00 +32°C° 0 mm 2 mps 749 mmHg 24%
    01:00 +32°C° 0 mm 2 mps 749 mmHg 26%
    02:00 +31°C° 0 mm 2 mps 748 mmHg 27%
    03:00 +31°C° 0 mm 2 mps 748 mmHg 28%
    04:00 +30°C° 0 mm 2 mps 748 mmHg 29%
    05:00 +30°C° 0 mm 2 mps 748 mmHg 30%
    06:00 +29°C° 0 mm 2 mps 748 mmHg 31%
    07:00 +31°C° 0 mm 2 mps 749 mmHg 28%
    08:00 +34°C° 0 mm 2 mps 750 mmHg 26%
    09:00 +36°C° 0 mm 3 mps 750 mmHg 23%
    10:00 +37°C° 0 mm 3 mps 750 mmHg 20%
    11:00 +39°C° 0 mm 3 mps 750 mmHg 18%
    12:00 +40°C° 0 mm 3 mps 750 mmHg 16%
    13:00 +40°C° 0 mm 3 mps 749 mmHg 15%
    14:00 +40°C° 0 mm 3 mps 748 mmHg 15%
    15:00 +40°C° 0 mm 2 mps 747 mmHg 14%
    16:00 +40°C° 0 mm 2 mps 747 mmHg 15%
    17:00 +39°C° 0 mm 1 mps 747 mmHg 15%
    18:00 +39°C° 0 mm 1 mps 746 mmHg 15%
    19:00 +37°C° 0 mm 1 mps 747 mmHg 16%
    20:00 +37°C° 0 mm 1 mps 747 mmHg 16%
    21:00 +36°C° 0 mm 1 mps 747 mmHg 17%
    22:00 +36°C° 0 mm 2 mps 747 mmHg 18%
    23:00 +36°C° 0 mm 2 mps 747 mmHg 19%

    21 April, Sunday

    Time Temperature Precipitation Wind Pressure Humidity
    00:00 +35°C° 0 mm 2 mps 747 mmHg 20%
    01:00 +34°C° 0 mm 2 mps 747 mmHg 20%
    02:00 +32°C° 0 mm 1 mps 746 mmHg 21%
    03:00 +31°C° 0 mm 1 mps 746 mmHg 22%
    04:00 +31°C° 0 mm 1 mps 746 mmHg 22%
    05:00 +30°C° 0 mm 1 mps 746 mmHg 23%
    06:00 +30°C° 0 mm 1 mps 747 mmHg 23%
    07:00 +32°C° 0 mm 1 mps 747 mmHg 21%
    08:00 +34°C° 0 mm 1 mps 748 mmHg 19%
    09:00 +37°C° 0 mm 1 mps 749 mmHg 16%
    10:00 +39°C° 0 mm 2 mps 749 mmHg 15%
    11:00 +41°C° 0 mm 2 mps 749 mmHg 14%
    12:00 +42°C° 0 mm 2 mps 748 mmHg 12%
    13:00 +43°C° 0 mm 3 mps 748 mmHg 11%
    14:00 +44°C° 0 mm 3 mps 747 mmHg 10%
    15:00 +44°C° 0 mm 3 mps 746 mmHg 10%
    16:00 +44°C° 0 mm 3 mps 746 mmHg 10%
    17:00 +44°C° 0 mm 3 mps 745 mmHg 10%
    18:00 +43°C° 0 mm 3 mps 745 mmHg 10%
    19:00 +42°C° 0 mm 3 mps 746 mmHg 11%
    20:00 +39°C° 0 mm 3 mps 746 mmHg 12%
    21:00 +38°C° 0 mm 2 mps 747 mmHg 14%
    22:00 +37°C° 0 mm 3 mps 747 mmHg 15%
    23:00 +36°C° 0 mm 3 mps 747 mmHg 16%

    22 April, Monday

    Time Temperature Precipitation Wind Pressure Humidity
    00:00 +35°C° 0 mm 3 mps 747 mmHg 18%
    01:00 +34°C° 0 mm 3 mps 747 mmHg 19%
    02:00 +34°C° 0 mm 3 mps 746 mmHg 21%
    03:00 +33°C° 0 mm 3 mps 746 mmHg 22%
    04:00 +31°C° 0 mm 3 mps 746 mmHg 25%
    05:00 +31°C° 0 mm 3 mps 746 mmHg 27%
    06:00 +30°C° 0 mm 3 mps 747 mmHg 30%
    07:00 +33°C° 0 mm 3 mps 747 mmHg 28%
    08:00 +35°C° 0 mm 3 mps 748 mmHg 26%
    09:00 +37°C° 0 mm 3 mps 749 mmHg 24%
    10:00 +39°C° 0 mm 2 mps 748 mmHg 20%
    11:00 +42°C° 0 mm 2 mps 748 mmHg 17%
    12:00 +44°C° 0 mm 1 mps 748 mmHg 13%
    13:00 +44°C° 0 mm 1 mps 747 mmHg 12%
    14:00 +45°C° 0 mm 2 mps 747 mmHg 11%
    15:00 +45°C° 0 mm 2 mps 746 mmHg 10%
    16:00 +43°C° 0 mm 2 mps 746 mmHg 11%
    17:00 +43°C° 0 mm 2 mps 745 mmHg 11%
    18:00 +43°C° 0 mm 2 mps 745 mmHg 11%
    19:00 +41°C° 0 mm 2 mps 746 mmHg 13%
    20:00 +40°C° 0 mm 3 mps 746 mmHg 15%
    21:00 +38°C° 0 mm 3 mps 747 mmHg 17%
    22:00 +37°C° 0 mm 4 mps 747 mmHg 20%
    23:00 +37°C° 0 mm 5 mps 747 mmHg 23%

    23 April, Tuesday

    Time Temperature Precipitation Wind Pressure Humidity
    00:00 +36°C° 0 mm 6 mps 747 mmHg 27%
    01:00 +35°C° 0 mm 6 mps 747 mmHg 29%
    02:00 +35°C° 0 mm 6 mps 747 mmHg 32%
    03:00 +34°C° 0 mm 5 mps 747 mmHg 35%
    04:00 +33°C° 0 mm 5 mps 747 mmHg 37%
    05:00 +33°C° 0 mm 6 mps 747 mmHg 39%
    06:00 +32°C° 0 mm 6 mps 748 mmHg 41%
    07:00 +33°C° 0 mm 6 mps 748 mmHg 40%
    08:00 +34°C° 0 mm 6 mps 749 mmHg 39%
    09:00 +35°C° 0 mm 7 mps 750 mmHg 39%
    10:00 +38°C° 0 mm 6 mps 749 mmHg 34%
    11:00 +40°C° 0 mm 6 mps 749 mmHg 30%
    12:00 +42°C° 0 mm 6 mps 749 mmHg 25%
    13:00 +43°C° 0 mm 5 mps 748 mmHg 23%
    14:00 +44°C° 0 mm 4 mps 748 mmHg 20%
    15:00 +44°C° 0 mm 3 mps 747 mmHg 18%
    16:00 +44°C° 0 mm 3 mps 747 mmHg 18%
    17:00 +44°C° 0 mm 3 mps 747 mmHg 17%
    18:00 +44°C° 0 mm 3 mps 746 mmHg 17%
    19:00 +42°C° 0.1 mm 4 mps 747 mmHg 22%
    20:00 +40°C° 0.1 mm 5 mps 747 mmHg 26%
    21:00 +39°C° 0.1 mm 6 mps 748 mmHg 31%
    22:00 +38°C° 0 mm 6 mps 748 mmHg 32%
    23:00 +36°C° 0 mm 5 mps 748 mmHg 34%
    Show more